Flag for United Kingdom Weather past 2 weeks in Londonderry, Northern Ireland, United Kingdom

Now
57 °F

Broken clouds.


Feels Like: 54 °F
Forecast: 42 / 52 °F
Wind: 16 mph from Southwest

Location: Eglinton / Londonderry

Current Time: Oct 23, 2014 at 12:29:54 PM

Latest Report: Oct 23, 2014 at 11:50 AM


Visibility: N/A

Pressure: 29.74 "Hg

Humidity: 88%

Dew point: 54 °F

Location of LondonderryLocation

Historic Weather in Londonderry — Graph

°F

Londonderry temperature yesterday

Maximum temperature yesterday: 57 °F (at 3:20 PM)
Minimum temperature yesterday: 52 °F (at 7:50 AM)
Average temperature yesterday: 54 °F

Past Weeks' High & Low Weather Summary

 TemperatureHumidityPressure
High64 °F (Oct 18, 12:20 PM)100% (Oct 11, 5:50 AM)30.09 "Hg (Oct 11, 5:50 AM)
Low41 °F (Oct 12, 6:20 AM)58% (Oct 21, 2:50 PM)29.09 "Hg (Oct 8, 3:50 PM)
Average54 °F83%29.62 "Hg
* Reported Oct 8 11:20 AM — Oct 23 11:20 AM, Londonderry, Weather by CustomWeather, © 2014

Note: Actual official high and low records may vary slightly from our data, if they occured in-between our weather recording intervals... More about our weather records

Advertising

Londonderry weather history for previous 24 hours

 ConditionsComfort  
Time TempWeatherWind HumidityBarometerVisibility
11:20 AM
Oct 23
57 °FScattered showers. Broken clouds.15 mph88%29.77 "HgN/A
10:50 AM57 °FScattered showers. Scattered clouds.16 mph88%29.77 "HgN/A
10:20 AM57 °FScattered clouds.15 mph88%29.77 "HgN/A
9:50 AM57 °FScattered clouds.16 mph88%29.77 "HgN/A
9:20 AM55 °FBroken clouds.14 mph88%29.77 "HgN/A
8:50 AM55 °FPassing clouds.14 mph88%29.77 "HgN/A
8:20 AM55 °FPassing clouds.16 mph88%29.77 "HgN/A
7:50 AM55 °FPartly cloudy.16 mph88%29.80 "HgN/A
4:20 PM
Oct 22
55 °FScattered clouds.17 mph82%29.98 "HgN/A
3:20 PM57 °FScattered clouds.22 mph77%30.01 "HgN/A
2:50 PM55 °FPartly sunny.25 mph77%30.01 "HgN/A
2:20 PM55 °FScattered clouds.24 mph82%30.01 "HgN/A
1:50 PM55 °FScattered clouds.22 mph82%30.04 "HgN/A
1:20 PM55 °FScattered clouds.20 mph82%30.04 "HgN/A
12:50 PM55 °FBroken clouds.21 mph82%30.04 "HgN/A
12:20 PM54 °FLight rain. Broken clouds.23 mph88%30.07 "Hg6 mi
Weather by CustomWeather, © 2014

See weather overviewHow to use our weather pages